Tracking 29924 objects as of 4-Dec-2024
HD Live streaming from Space Station
objects crossing your sky now

SL-8 R/B

Track SL-8 R/B now!
10-day predictions


NORAD ID: 12150
Int'l Code: 1981-006B
Perigee: 935.9 km
Apogee: 1,024.8 km
Inclination: 65.8 °
Period: 104.5 minutes
Semi major axis: 7351 km
RCS: 5.2266 m2 (large)
Launch date: January 21, 1981
Source: Commonwealth of Independent States (former USSR) (CIS)
Launch site: PLESETSK MISSILE AND SPACE COMPLEX (PKMTR)

Note: This is a ROCKET BODY
Your satellite tracking list
Your tracking list is empty




NASA's NSSDC Master Catalog

Two Line Element Set (TLE):
1 12150U 81006B   24338.85649249 -.00000013  00000-0  67794-4 0  9993
2 12150  65.8186 147.8506 0060424 301.1825  58.3323 13.77377216204365
Source of the keplerian elements: AFSPC